"Pseudo-MPEC" for MHS1122

Created 2021 Sep 20 16:07:06 UT using Find_Orb

Click here for an explanation of pseudo-MPECs

 
 Astrometry: 
     MHS1122 KC2021 09 12#gg;SiAstrometry(\g!-OXmHhJc-lv?e%y2redacted;#%Et-4WW16
     MHS1122 KC2021 09 12iU2v*jj-b21L*rr87,q6c*nh^9=k'tZ],0gPTN9f`?pX7QJ(]BFfW16
     MHS1122 KC2021 09 12id%,/-Ziclickj@y1pT`here/t(E2sv]for!3Yt4_`W#@=2MwUqqW16
     MHS1122 KC2021 09 12T\gbvQ7vY6/SfFTy%(gixA/;-6lbexplanationacpC+3@\J;`%HW16

Station data:
(W16) Pleasant Groves Observatory  (N34.711891 W86.231310)  US/Alabama.

Orbital elements:  MHS1122
   Perihelion 2021 Sep 3.066494 +/- 36.0923 TT =  1:35:45 (JD 2459460.566494)
Epoch 2021 Sep 12.0 TT = JDT 2459469.5   Earth MOID: 0.2888   Ma: 0.0067
M   2.30718736 +/- 16.740412        (J2000 ecliptic)          AutoNEOCP
n   0.25826225 +/- 0.252681         Peri.  121.06706 +/- 99.426461
a   2.44209240 +/- 1.59536          Node   219.86966 +/- 58.601706
e   0.5015080 +/- 0.261283          Incl.   13.37436 +/- 7.3833570
P   3.82                   H 22.3   G  0.15   U 11.8  SR
q 1.21736349 +/- 0.160554    Q 3.66682131 +/- 38.071
From 4 observations 2021 Sept. 12 (34.6 min); mean residual 0".27
Residuals in arcseconds: 
210912 W16  .15+  .11-    210912 W16  .25-  .50-    
210912 W16  .10-  .41+    210912 W16  .20+  .19+    

Ephemerides (geocentric):
Date (UTC) HH   RA              Dec         delta   r     elong  mag " sig PA
---- -- -- --  -------------   -----------  ------ ------ -----  --- ---- ---
2021 09 20 16  22 28 28.522   +37 00 54.94  .28903 1.2327 137.5 21.4  43d  28
2021 09 20 17  22 28 36.529   +36 59 37.92  .28902 1.2328 137.5 21.4  43d  28
2021 09 20 18  22 28 44.537   +36 58 20.78  .28902 1.2329 137.5 21.4  43d  29
2021 09 20 19  22 28 52.545   +36 57 03.51  .28902 1.2329 137.6 21.4  43d  29
2021 09 20 20  22 29 00.554   +36 55 46.11  .28901 1.2330 137.6 21.4  44d  29
2021 09 20 21  22 29 08.564   +36 54 28.57  .28901 1.2331 137.6 21.4  44d  29
2021 09 20 22  22 29 16.574   +36 53 10.91  .28901 1.2331 137.7 21.4  45d  33
2021 09 20 23  22 29 24.584   +36 51 53.11  .28900 1.2332 137.7 21.4  45d  33
2021 09 21 00  22 29 32.595   +36 50 35.19  .28900 1.2333 137.7 21.4  45d  33
2021 09 21 01  22 29 40.606   +36 49 17.14  .28900 1.2334 137.7 21.4  45d  33
2021 09 21 02  22 29 48.618   +36 47 58.96  .28900 1.2334 137.8 21.4  45d  33
2021 09 21 03  22 29 56.631   +36 46 40.64  .28899 1.2335 137.8 21.4  46d  33
2021 09 21 04  22 30 04.643   +36 45 22.20  .28899 1.2336 137.8 21.4  46d  33
2021 09 21 05  22 30 12.657   +36 44 03.63  .28899 1.2337 137.9 21.4  46d  33
2021 09 21 06  22 30 20.670   +36 42 44.94  .28899 1.2337 137.9 21.4  46d  33
2021 09 21 07  22 30 28.684   +36 41 26.11  .28899 1.2338 137.9 21.4  46d  33
2021 09 21 08  22 30 36.699   +36 40 07.15  .28899 1.2339 138.0 21.4  46d  33
2021 09 21 09  22 30 44.713   +36 38 48.07  .28899 1.2340 138.0 21.4  46d  33
2021 09 21 10  22 30 52.728   +36 37 28.86  .28898 1.2340 138.0 21.4  46d  33
2021 09 21 11  22 31 00.744   +36 36 09.52  .28898 1.2341 138.1 21.4  46d  33
2021 09 21 12  22 31 08.759   +36 34 50.05  .28898 1.2342 138.1 21.4  46d  33
2021 09 21 13  22 31 16.775   +36 33 30.45  .28898 1.2343 138.1 21.4  46d  33
2021 09 21 14  22 31 24.792   +36 32 10.73  .28898 1.2343 138.2 21.4  46d  33
2021 09 21 15  22 31 32.808   +36 30 50.88  .28898 1.2344 138.2 21.4  47d  32
2021 09 21 16  22 31 40.825   +36 29 30.90  .28898 1.2345 138.2 21.4  47d  32
2021 09 21 17  22 31 48.842   +36 28 10.80  .28898 1.2346 138.3 21.4  47d  32
2021 09 21 18  22 31 56.859   +36 26 50.57  .28899 1.2346 138.3 21.4  47d  32
2021 09 21 19  22 32 04.877   +36 25 30.21  .28899 1.2347 138.3 21.4  47d  32
2021 09 21 20  22 32 12.894   +36 24 09.72  .28899 1.2348 138.4 21.4  47d  32
2021 09 21 21  22 32 20.912   +36 22 49.11  .28899 1.2349 138.4 21.4  47d  32
2021 09 21 22  22 32 28.930   +36 21 28.38  .28899 1.2349 138.4 21.4  47d  32
2021 09 21 23  22 32 36.948   +36 20 07.51  .28899 1.2350 138.4 21.4  47d  32
2021 09 22 00  22 32 44.966   +36 18 46.53  .28900 1.2351 138.5 21.4  47d  32
2021 09 22 01  22 32 52.985   +36 17 25.41  .28900 1.2352 138.5 21.4  47d  32
2021 09 22 02  22 33 01.003   +36 16 04.17  .28900 1.2352 138.5 21.4  47d  32
2021 09 22 03  22 33 09.021   +36 14 42.81  .28900 1.2353 138.6 21.4  47d  32
2021 09 22 04  22 33 17.040   +36 13 21.32  .28901 1.2354 138.6 21.4  47d  32
2021 09 22 05  22 33 25.059   +36 11 59.70  .28901 1.2355 138.6 21.4  47d  32
2021 09 22 06  22 33 33.077   +36 10 37.96  .28901 1.2356 138.7 21.4  47d  32
2021 09 22 07  22 33 41.096   +36 09 16.10  .28902 1.2356 138.7 21.4  47d  32
2021 09 22 08  22 33 49.115   +36 07 54.11  .28902 1.2357 138.7 21.4  48d  32
2021 09 22 09  22 33 57.134   +36 06 32.00  .28902 1.2358 138.8 21.4  48d  32
2021 09 22 10  22 34 05.152   +36 05 09.76  .28903 1.2359 138.8 21.4  48d  32
2021 09 22 11  22 34 13.171   +36 03 47.40  .28903 1.2360 138.8 21.4  48d  32
2021 09 22 12  22 34 21.190   +36 02 24.91  .28904 1.2360 138.9 21.4  48d  32
2021 09 22 13  22 34 29.208   +36 01 02.31  .28904 1.2361 138.9 21.4  48d  32
2021 09 22 14  22 34 37.227   +35 59 39.58  .28905 1.2362 138.9 21.4  48d  32
2021 09 22 15  22 34 45.245   +35 58 16.72  .28905 1.2363 139.0 21.4  48d  32